Tracking 19572 objects as of 23-Feb-2019
HD Live streaming from Space Station
objects crossing your sky now

COSMOS 2131

Track COSMOS 2131 now!
10-day predictions
COSMOS 2131 is classified as:


NORAD ID: 21106
Int'l Code: 1991-009G
Perigee: 1,393.4 km
Apogee: 1,475.7 km
Inclination: 74.0 °
Period: 114.4 minutes
Semi major axis: 7805 km
RCS: 0.6789 m2 (medium)
Launch date: February 12, 1991
Source: Commonwealth of Independent States (former USSR) (CIS)
Launch site: PLESETSK MISSILE AND SPACE COMPLEX (PKMTR)
aabbcc
Your satellite tracking list
Your tracking list is empty




NASA's NSSDC Master Catalog

Two Line Element Set (TLE):
1 21106U 91009G   19053.90280684 -.00000031 +00000-0 -82655-4 0  9990
2 21106 074.0302 040.1674 0052686 289.8603 092.0076 12.58914118288083
Source of the keplerian elements: AFSPC